Weather History for Kalamazoo, MI

Change the Weather History Date:

Tuesday, December 4, 2012

  Actual Average Record
Temperature  
Mean Temperature 52 °F 33 °F  
Max Temperature 64 °F 39 °F 64 °F (2012)
Min Temperature 39 °F 27 °F 0 °F (2002)
Degree Days  
Heating Degree Days 13 32  
Month to date heating degree days 64 127  
Since 1 July heating degree days 1445 1454  
Cooling Degree Days 0 0  
Month to date cooling degree days 0 0  
Year to date cooling degree days 1051 675  
Growing Degree Days 2 (Base 50)    
Moisture  
Dew Point 44 °F    
Average Humidity 69    
Maximum Humidity 93    
Minimum Humidity 44    
Precipitation  
Precipitation 0.12 in 0.08 in 0.63 in (1951)
Month to date precipitation 0.37 0.33  
Year to date precipitation 26.05 34.09  
Sea Level Pressure  
Sea Level Pressure 30.01 in    
Wind  
Wind Speed 10 mph (West)    
Max Wind Speed 21 mph    
Max Gust Speed 29 mph    
Visibility 9 miles    
Events Rain    
T = Trace of Precipitation, MM = Missing Value Source: NWS Daily Summary

Daily Weather History Graph

Daily Weather History Graph

Search for Another Location

Airport:

Trip Planner

Search our weather history database for the weather conditions in past years. The results will help you decide how hot, cold, wet, or windy it might be!

Date:

Astronomy

Dec. 04, 2012 Rise Set
Actual Time 7:54 AM EST 5:10 PM EST
Civil Twilight 7:23 AM EST 5:41 PM EST
Nautical Twilight 6:48 AM EST 6:16 PM EST
Astronomical Twilight 6:14 AM EST 6:50 PM EST
Moon 11:01 PM EST (12/4) 11:45 AM EST (12/4)
Length of Visible Light 10h 18m
Length of Day
9h 15m
Waning Gibbous, 69% of the Moon is Illuminated
Dec 4
Waning Gibbous
Dec 6
Last Quarter
Dec 13
New
Dec 20
First Quarter
Dec 28
Full

Hourly Weather History & Observations

Time (EST) Temp. Windchill Dew Point Humidity Pressure Visibility Wind Dir Wind Speed Gust Speed Precip Events Conditions
12:45 AM 62.6 °F - 55.4 °F 77% 29.89 in 10.0 mi SSW 13.8 mph 24.2 mph 0.00 in Rain Light Rain
12:53 AM 62.6 °F - 55.4 °F 77% 29.89 in 10.0 mi SSW 13.8 mph 24.2 mph N/A   Overcast
1:53 AM 63.0 °F - 57.0 °F 81% 29.90 in 8.0 mi SW 16.1 mph 23.0 mph 0.00 in Rain Light Rain
2:53 AM 62.1 °F - 57.0 °F 84% 29.90 in 10.0 mi WSW 11.5 mph - 0.01 in Rain Light Rain
3:13 AM 60.8 °F - 57.2 °F 88% 29.90 in 4.0 mi SW 11.5 mph - 0.01 in Rain Light Rain
3:30 AM 60.8 °F - 57.2 °F 88% 29.90 in 9.0 mi WSW 10.4 mph - 0.01 in Rain Light Rain
3:53 AM 60.1 °F - 57.9 °F 93% 29.90 in 8.0 mi WSW 8.1 mph - 0.02 in Rain Light Rain
4:09 AM 60.8 °F - 57.2 °F 88% 29.91 in 7.0 mi West 12.7 mph 23.0 mph 0.00 in Rain Light Rain
4:23 AM 53.6 °F - 51.8 °F 94% 29.92 in 7.0 mi NNW 16.1 mph - 0.00 in Rain Light Rain
4:53 AM 53.1 °F - 48.9 °F 86% 29.93 in 8.0 mi NNW 15.0 mph - 0.00 in   Overcast
5:19 AM 51.8 °F - 48.2 °F 88% 29.94 in 5.0 mi NW 12.7 mph - 0.01 in Rain Light Rain
5:53 AM 50.0 °F - 46.0 °F 86% 29.96 in 8.0 mi NW 11.5 mph - 0.01 in Rain Light Rain
6:53 AM 48.0 °F - 45.0 °F 89% 30.01 in 5.0 mi NW 9.2 mph - 0.04 in Rain Light Rain
7:53 AM 46.9 °F - 44.1 °F 90% 30.03 in 9.0 mi NW 3.5 mph - 0.04 in Rain Light Rain
8:53 AM 48.0 °F - 45.0 °F 89% 30.03 in 8.0 mi Calm Calm - 0.00 in   Overcast
9:53 AM 48.9 °F - 45.0 °F 86% 30.04 in 8.0 mi WSW 4.6 mph - N/A   Mostly Cloudy
10:53 AM 48.0 °F - 43.0 °F 83% 30.06 in 10.0 mi WSW 6.9 mph - N/A   Overcast
11:53 AM 48.9 °F - 41.0 °F 74% 30.04 in 10.0 mi West 6.9 mph - N/A   Clear
12:53 PM 50.0 °F - 39.0 °F 66% 30.03 in 10.0 mi West 12.7 mph 18.4 mph N/A   Clear
1:53 PM 52.0 °F - 36.0 °F 54% 30.04 in 10.0 mi WNW 11.5 mph 20.7 mph N/A   Clear
2:53 PM 53.1 °F - 34.0 °F 48% 30.04 in 10.0 mi West 13.8 mph - N/A   Clear
3:53 PM 51.1 °F - 30.9 °F 46% 30.05 in 10.0 mi WNW 15.0 mph 24.2 mph N/A   Clear
4:53 PM 48.9 °F - 32.0 °F 52% 30.07 in 10.0 mi West 9.2 mph - N/A   Clear
5:53 PM 46.0 °F 42.5 °F 33.1 °F 61% 30.09 in 10.0 mi WSW 6.9 mph - N/A   Clear
6:53 PM 45.0 °F 41.2 °F 34.0 °F 65% 30.10 in 10.0 mi WSW 6.9 mph - N/A   Clear
7:53 PM 44.1 °F 40.1 °F 34.0 °F 68% 30.12 in 10.0 mi WSW 6.9 mph - N/A   Clear
8:53 PM 45.0 °F 40.1 °F 35.1 °F 68% 30.13 in 10.0 mi WNW 9.2 mph - N/A   Clear
9:53 PM 44.1 °F 38.1 °F 33.1 °F 65% 30.15 in 10.0 mi NW 11.5 mph - N/A   Clear
10:53 PM 42.1 °F 35.7 °F 30.9 °F 65% 30.17 in 10.0 mi NW 11.5 mph 19.6 mph N/A   Clear
11:53 PM 39.0 °F 31.0 °F 28.9 °F 67% 30.22 in 10.0 mi WNW 13.8 mph - N/A   Clear